Weather History for Worland, WY

Change the Weather History Date:

Thursday, February 14, 2013

  Actual Average Record
Temperature  
Mean Temperature 27 °F 23 °F  
Max Temperature 31 °F 37 °F 58 °F (1981)
Min Temperature 22 °F 10 °F -11 °F (2001)
Degree Days  
Heating Degree Days 38 42  
Month to date heating degree days 632 617  
Since 1 July heating degree days 4958 5465  
Cooling Degree Days 0 0  
Month to date cooling degree days 0 0  
Year to date cooling degree days 0 0  
Moisture  
Dew Point 21 °F    
Average Humidity 77    
Maximum Humidity 96    
Minimum Humidity 58    
Precipitation  
Precipitation 0.08 in 0.01 in 0.50 in (1967)
Month to date precipitation 0.14 0.09  
Year to date precipitation 0.27 0.32  
Sea Level Pressure  
Sea Level Pressure 30.29 in    
Wind  
Wind Speed 7 mph (NW)    
Max Wind Speed 21 mph    
Max Gust Speed 25 mph    
Visibility 5 miles    
Events Fog , Snow    
T = Trace of Precipitation, MM = Missing Value Source: NWS Daily Summary

Daily Weather History Graph

Daily Weather History Graph

Search for Another Location

Airport:

Trip Planner

Search our weather history database for the weather conditions in past years. The results will help you decide how hot, cold, wet, or windy it might be!

Date:

Astronomy

Feb. 14, 2013 Rise Set
Actual Time 7:11 AM MST 5:40 PM MST
Civil Twilight 6:42 AM MST 6:10 PM MST
Nautical Twilight 6:08 AM MST 6:44 PM MST
Astronomical Twilight 5:35 AM MST 7:17 PM MST
Moon 9:03 AM MST (2/14) 10:59 PM MST (2/14)
Length of Visible Light 11h 28m
Length of Day
10h 28m
Waxing Crescent, 22% of the Moon is Illuminated
Feb 14
Waxing Crescent
Feb 17
First Quarter
Feb 25
Full
Mar 4
Last Quarter
Mar 11
New

Hourly Weather History & Observations

Time (MST) Temp. Windchill Dew Point Humidity Pressure Visibility Wind Dir Wind Speed Gust Speed Precip Events Conditions
12:15 AM 30.2 °F 24.3 °F 26.6 °F 86% 30.05 in 6.0 mi WSW 5.8 mph - 0.00 in Snow Light Snow
12:53 AM 30.0 °F 26.5 °F 27.0 °F 88% 30.16 in 2.0 mi NNW 3.5 mph - 0.00 in Snow Light Snow
1:02 AM 30.2 °F 25.4 °F 28.4 °F 93% 30.06 in 1.0 mi NNW 4.6 mph - 0.00 in Snow Light Snow
1:18 AM 30.2 °F 26.7 °F 28.4 °F 93% 30.06 in 3.0 mi NNW 3.5 mph - 0.00 in Snow Light Snow
1:33 AM 30.2 °F - 28.4 °F 93% 30.06 in 6.0 mi Calm Calm - 0.00 in Snow Light Snow
1:53 AM 30.0 °F 26.5 °F 28.0 °F 92% 30.15 in 4.0 mi SW 3.5 mph - 0.00 in Snow Light Snow
2:53 AM 30.9 °F 21.7 °F 28.0 °F 89% 30.14 in 8.0 mi WNW 11.5 mph - 0.00 in Snow Light Snow
3:46 AM 30.2 °F 19.8 °F 28.4 °F 93% 30.07 in 6.0 mi NW 13.8 mph - 0.00 in   Overcast
3:53 AM 30.0 °F 19.5 °F 28.0 °F 92% 30.17 in 8.0 mi NNW 13.8 mph - 0.00 in   Overcast
4:53 AM 27.0 °F 14.3 °F 19.9 °F 75% 30.23 in 10.0 mi NW 17.3 mph - 0.00 in   Overcast
5:53 AM 25.0 °F 15.5 °F 18.0 °F 75% 30.29 in 10.0 mi North 9.2 mph - N/A   Overcast
6:53 AM 25.0 °F 20.7 °F 16.0 °F 69% 30.35 in 10.0 mi Variable 3.5 mph - N/A   Overcast
7:53 AM 24.1 °F 14.4 °F 18.0 °F 77% 30.38 in 10.0 mi WNW 9.2 mph - N/A   Overcast
8:53 AM 24.1 °F 13.7 °F 18.0 °F 77% 30.42 in 10.0 mi West 10.4 mph - N/A   Overcast
9:53 AM 25.0 °F 14.8 °F 18.0 °F 75% 30.43 in 10.0 mi WNW 10.4 mph - N/A   Overcast
10:53 AM 26.1 °F 16.8 °F 18.0 °F 71% 30.44 in 10.0 mi WNW 9.2 mph - N/A   Overcast
11:53 AM 27.0 °F 15.6 °F 17.1 °F 66% 30.43 in 10.0 mi NW 13.8 mph - N/A   Overcast
12:53 PM 28.0 °F 20.0 °F 18.0 °F 66% 30.41 in 10.0 mi NW 8.1 mph - N/A   Mostly Cloudy
1:53 PM 28.9 °F 23.9 °F 16.0 °F 58% 30.39 in 10.0 mi North 4.6 mph - N/A   Overcast
2:53 PM 28.9 °F 25.2 °F 16.0 °F 58% 30.40 in 10.0 mi WNW 3.5 mph - N/A   Overcast
3:53 PM 27.0 °F 23.0 °F 16.0 °F 63% 30.40 in 10.0 mi SSE 3.5 mph - N/A   Overcast
4:53 PM 26.1 °F 20.5 °F 17.1 °F 69% 30.41 in 10.0 mi SE 4.6 mph - N/A   Overcast
5:53 PM 26.1 °F - 17.1 °F 69% 30.41 in 10.0 mi Calm Calm - N/A   Overcast
6:53 PM 25.0 °F 20.7 °F 18.0 °F 75% 30.43 in 7.0 mi WSW 3.5 mph - 0.00 in Snow Light Snow
7:19 PM 24.8 °F - 19.4 °F 80% 30.28 in 2.5 mi Calm Calm - 0.00 in Snow Light Snow
7:33 PM 24.8 °F - 19.4 °F 80% 30.28 in 1.8 mi Calm Calm - 0.00 in Snow Light Snow
7:37 PM 24.8 °F - 19.4 °F 80% 30.28 in 2.0 mi Calm Calm - 0.00 in Snow Light Snow
7:53 PM 23.0 °F - 21.0 °F 92% 30.43 in 2.5 mi Calm Calm - 0.00 in Snow Light Snow
8:01 PM 23.0 °F - 21.2 °F 93% 30.28 in 3.0 mi Calm Calm - 0.00 in Snow Light Snow
8:06 PM 23.0 °F - 21.2 °F 93% 30.28 in 1.8 mi Calm Calm - 0.00 in Snow Light Snow
8:22 PM 23.0 °F - 21.2 °F 93% 30.27 in 1.8 mi Calm Calm - 0.00 in Snow Light Snow
8:53 PM 23.0 °F 17.0 °F 21.0 °F 92% 30.42 in 1.2 mi East 4.6 mph - 0.01 in Snow Light Snow
9:07 PM 23.0 °F 17.0 °F 21.2 °F 93% 30.27 in 2.0 mi East 4.6 mph - 0.00 in Snow Light Snow
9:16 PM 23.0 °F 18.4 °F 21.2 °F 93% 30.27 in 1.5 mi ESE 3.5 mph - 0.00 in Snow Light Snow
9:38 PM 23.0 °F 18.4 °F 21.2 °F 93% 30.27 in 0.8 mi East 3.5 mph - 0.01 in Snow Light Snow
9:53 PM 23.0 °F 18.4 °F 21.0 °F 92% 30.42 in 0.5 mi East 3.5 mph - 0.03 in Fog , Snow Snow
10:20 PM 23.0 °F 17.0 °F 21.2 °F 93% 30.26 in 0.8 mi SE 4.6 mph - 0.01 in Snow Light Snow
10:27 PM 23.0 °F 17.0 °F 21.2 °F 93% 30.26 in 1.0 mi SE 4.6 mph - 0.02 in Snow Light Snow
10:44 PM 23.0 °F - 21.2 °F 93% 30.26 in 1.0 mi Calm Calm - 0.02 in Snow Light Snow
10:53 PM 23.0 °F 18.4 °F 21.0 °F 92% 30.40 in 1.0 mi SE 3.5 mph - 0.02 in Snow Light Snow
11:10 PM 23.0 °F 18.4 °F 21.2 °F 93% 30.27 in 1.0 mi ESE 3.5 mph - 0.01 in Snow Light Snow
11:53 PM 21.9 °F 15.7 °F 19.9 °F 92% 30.41 in 1.5 mi ESE 4.6 mph - 0.02 in Snow Light Snow